Regional Weather Roundup
Issued by NWS

Home | Current Version | Previous Version | Text Only | Print | Product List | Glossary Off
Versions: 1 2 3 4 5 6 7 8 9 10 11 12 13 14 15 16 17 18 19 20 21 22 23 24 25 26 27 28 29 30 31 32 33 34 35 36 37 38 39 40 41 42 43 44 45 46 47 48 49

000
ASUS45 KTFX 012010
RWRMT
MONTANA REGIONAL WEATHER ROUNDUP
NATIONAL WEATHER SERVICE GREAT FALLS MT
200 PM MDT WED JUL 01 2015

NOTE: "FAIR" INDICATES FEW OR NO CLOUDS BELOW 12000 FEET WITH NO
SIGNIFICANT WEATHER AND/OR OBSTRUCTIONS TO VISIBILITY.

MTZ001>007-043-012100-
WEST OF THE DIVIDE

CITY           SKY/WX    TMP DP  RH WIND       PRES   REMARKS
KALISPELL      PTCLDY    90  47  22 SW10      30.00F
MISSOULA       SUNNY     91  40  16 MISG      30.03F
BUTTE          SUNNY     82  37  20 N6        30.17F
MULLAN PASS    MOSUNNY   71  42  35 NW5       30.25S
DEER LODGE       N/A     84  43  23 N8        30.16F
EUREKA           N/A     82  54  36 W9        30.03F
HAMILTON         N/A     88  45  22 NE1       30.05F
PLAINS           N/A     93  47  20 CALM      30.00F
RONAN            N/A     86  51  29 NE3       30.08F
THOMPSON FALLS   N/A     94  41  16 NW13      30.02F HX  90
$$

MTZ008-052>055-012100-
SOUTHWEST MONTANA

CITY           SKY/WX    TMP DP  RH WIND       PRES   REMARKS
BOZEMAN        SUNNY     83  49  30 NW12      30.09F
DILLON         SUNNY     86  46  24 VRB6      30.11F
W YELLOWSTONE  SUNNY     81  34  18 NW7G20    30.23F
THREE FORKS      N/A     88  44  21 SE5       30.06F
TWIN BRIDGES     N/A     86  46  24 S6        30.09F
$$

MTZ009-010-012-014-046-048-049-054-012100-
EAST SLOPES AND CENTRAL MONTANA

CITY           SKY/WX    TMP DP  RH WIND       PRES   REMARKS
CUT BANK       SUNNY     75  56  51 N18       30.12S HAZE
GREAT FALLS    PTSUNNY   85  50  29 NE14G20   30.04S
HELENA         SUNNY     91  41  17 W14G20    30.04S
CONRAD           N/A     78  63  60 NW13      30.11R
$$

MTZ011-013-016-021-045-047-050-051-012100-
NORTH CENTRAL MONTANA

CITY           SKY/WX    TMP DP  RH WIND       PRES   REMARKS
HAVRE          PTSUNNY   73  61  65 VRB3      30.05R HAZE
LEWISTOWN      SUNNY     85  51  31 VRB6      30.08R
CHINOOK          N/A     66  61  82 SW6       30.04R
FORT BENTON      N/A     84  54  34 NE12G17   30.00F
$$

MTZ017>020-022>027-061-062-012100-
NORTHEAST MONTANA

CITY           SKY/WX    TMP DP  RH WIND       PRES   REMARKS
GLASGOW        MOSUNNY   78  58  49 CALM      29.98F HAZE
JORDAN           N/A     84  59  42 N12       30.00S
SIDNEY         SUNNY     75  61  60 N7        30.00S
WOLF POINT     PTSUNNY   81  60  48 VRB5      29.98F HAZE
MALTA            N/A     80  64  58 W16       29.98R
PLENTYWOOD       N/A     75  57  53 N3        29.99S
POPLAR           N/A     79  61  53 CALM      29.99S
SCOBEY           N/A     78  53  41 N7        29.99F
$$

MTZ028>42-056>058-012100-
SOUTHCENTRAL AND SOUTHEAST MONTANA

CITY           SKY/WX    TMP DP  RH WIND       PRES   REMARKS
BAKER          MOSUNNY   74  62  66 E8        30.03S
BILLINGS       MOSUNNY   89  49  25 SE13      30.02F
LIVINGSTON     SUNNY     90  47  22 W17G24    30.07F
MILES CITY     MOSUNNY   84  61  45 VRB7      29.98F
EKALAKA          N/A     77  59  53 W12       30.02S
FORSYTH          N/A     86  55  35 CALM      29.98S
LAUREL           N/A     88  50  27 E1        30.01F
ROUNDUP          N/A     87  49  26 NE3       29.94F
$$

REGIONAL REPORTS...DAKOTAS

CITY           SKY/WX    TMP DP  RH WIND       PRES   REMARKS
WILLISTON      MOSUNNY   77  58  51 N8        30.00R
MINOT          CLOUDY    71  61  70 CALM      29.97R
DICKINSON      PTSUNNY   71  60  68 N7        30.00S
BEACH          LGT RAIN  73  64  73 SE6       30.02F
CROSBY         FAIR      72  72 100 NW7       29.99S FOG
BISMARCK       PTSUNNY   77  62  59 CALM      29.96S
GRAND FORKS    MOSUNNY   77  59  53 CALM      29.93S
FARGO          PTSUNNY   75  61  61 S10       29.96S
BUFFALO SD       N/A     78  62  57 NW7       29.95F
RAPID CITY     SUNNY     83  58  42 N25G31    30.00S
$$

REGIONAL REPORTS...WYOMING/IDAHO/WASHINGTON

CITY           SKY/WX    TMP DP  RH WIND       PRES   REMARKS
GILLETTE       SUNNY     84  54  35 N12G17    30.07F
SHERIDAN       MOSUNNY   87  50  27 VRB3      30.05F
BUFFALO WY     MOSUNNY   82  50  32 CALM      30.12F
CODY           SUNNY     82  52  34 NW6       30.09F
YELLOWSTONE LA   N/A     78  36  21 VRB7      30.32F
IDAHO FALLS    MOSUNNY   87  53  31 S3        30.11F
SALMON         SUNNY     88  52  29 N8        30.01F
BOISE          SUNNY     96  48  19 NW8G18    29.99F HX  92
SPOKANE        MOSUNNY   90  47  22 SW13      30.02S
$$

REGIONAL REPORTS...ALBERTA

CITY           SKY/WX    TMP DP  RH WIND       PRES   REMARKS
EDMONTON       MOSUNNY   73  57  56 NW7       30.05R
CALGARY        PTSUNNY   70  54  56 N21       30.15S
LETHBRIDGE     MOSUNNY   75  54  46 NW13G22   30.12S
MEDICINE HAT   PTSUNNY   73  63  68 NW9       30.04S
WATERTON GATE    N/A     66  55  68 E1          N/A
CARDSTON         N/A     70  59  68 N7G22       N/A
MILK RIVER       N/A     72  55  56 N16         N/A
ONEFOUR          N/A     75  55  50 W20G28      N/A
$$

REGIONAL REPORTS...SASKATCHEWAN

CITY           SKY/WX    TMP DP  RH WIND       PRES   REMARKS
SWIFT CURRENT  PTSUNNY   73  59  60 NW9       30.01S
REGINA         PTSUNNY   70  61  73 W7        29.99R SMOKE
SASKATOON      MOSUNNY   73  61  64 W9        29.98S
CYPRESS HILLS    N/A     68  54  60 N8          N/A
VAL MARIE        N/A     81  54  39 W9          N/A
$$


USA.gov is the U.S. government's official web portal to all federal, state and local government web resources and services.